timestamp,surface_pressure_avg,surface_temp_avg,battery_voltage,lat,long
2022-08-21 00:09:01+00:00,237.9098,19.8,11.53,47.84626,-54.09684
2022-08-21 00:19:01+00:00,238.8981,19.81,11.53,47.84626,-54.09684
2022-08-21 00:29:01+00:00,239.9648,19.86,11.53,47.84626,-54.09684
2022-08-21 00:39:01+00:00,239.8131,19.88,11.53,47.84626,-54.09684
2022-08-21 00:49:01+00:00,238.7764,19.88,11.53,47.84626,-54.09684
2022-08-21 00:59:01+00:00,240.1114,19.87,11.53,47.84626,-54.09684
2022-08-21 01:09:01+00:00,242.2731,19.85,11.53,47.84626,-54.09684
2022-08-21 01:19:00+00:00,243.3031,19.83,11.53,47.84626,-54.09684
2022-08-21 01:29:00+00:00,241.9631,19.8,11.53,47.84626,-54.09684
2022-08-21 01:39:00+00:00,241.6631,19.7,11.53,47.84626,-54.09684
2022-08-21 01:49:00+00:00,242.4265,19.6,11.53,47.84626,-54.09684
2022-08-21 01:59:00+00:00,241.5898,19.59,11.53,47.84626,-54.09684
2022-08-21 02:09:00+00:00,239.2231,19.5,11.53,47.84626,-54.09684
2022-08-21 02:19:00+00:00,239.8414,19.49,11.53,47.84626,-54.09684
2022-08-21 02:29:00+00:00,242.2498,19.5,11.53,47.84626,-54.09684
2022-08-21 02:39:00+00:00,242.4581,19.49,11.53,47.84626,-54.09684
2022-08-21 02:49:00+00:00,241.6348,19.5,11.53,47.84626,-54.09684
2022-08-21 02:59:00+00:00,243.3615,19.5,11.53,47.84626,-54.09684
2022-08-21 03:09:00+00:00,246.1414,19.5,11.53,47.84626,-54.09684
2022-08-21 03:19:01+00:00,248.8615,19.5,11.46,47.84626,-54.09684
2022-08-21 03:29:01+00:00,251.4614,19.5,11.46,47.84626,-54.09684
2022-08-21 03:39:01+00:00,255.0213,19.5,11.46,47.84626,-54.09684
2022-08-21 03:49:01+00:00,257.6831,19.4,11.46,47.84626,-54.09684
2022-08-21 03:59:01+00:00,261.063,19.4,11.46,47.84626,-54.09684
2022-08-21 04:09:01+00:00,264.3698,19.39,11.46,47.84626,-54.09684
2022-08-21 04:19:00+00:00,268.8347,19.38,11.46,47.84626,-54.09684
2022-08-21 04:29:00+00:00,271.4981,19.36,11.46,47.84626,-54.09684
2022-08-21 04:39:00+00:00,274.8548,19.18,11.46,47.84626,-54.09684
2022-08-21 04:49:00+00:00,278.2264,19.16,11.46,47.84626,-54.09684
2022-08-21 04:59:00+00:00,280.3447,19.22,11.46,47.84626,-54.09684
2022-08-21 05:09:00+00:00,280.7614,19.3,11.46,47.84626,-54.09684
2022-08-21 05:19:01+00:00,283.113,19.25,11.46,47.84626,-54.09684
2022-08-21 05:29:01+00:00,287.423,19.2,11.46,47.84626,-54.09684
2022-08-21 05:39:01+00:00,288.7548,19.2,11.46,47.84626,-54.09684
2022-08-21 05:49:01+00:00,288.7713,19.1,11.46,47.84626,-54.09684
2022-08-21 05:59:01+00:00,291.2346,19.1,11.46,47.84626,-54.09684
2022-08-21 06:09:01+00:00,293.0864,19.1,11.46,47.84626,-54.09684
2022-08-21 06:19:01+00:00,291.7997,19.0,11.46,47.84626,-54.09684
2022-08-21 06:29:01+00:00,291.3531,18.9,11.46,47.84626,-54.09684
2022-08-21 06:39:01+00:00,294.5781,18.8,11.46,47.84626,-54.09684
2022-08-21 06:49:01+00:00,295.3914,18.85,11.46,47.84626,-54.09684
2022-08-21 06:59:01+00:00,295.3697,18.95,11.46,47.84626,-54.09684
2022-08-21 07:09:01+00:00,296.1197,19.0,11.46,47.84626,-54.09684
2022-08-21 07:19:00+00:00,297.633,19.0,11.46,47.84626,-54.09684
2022-08-21 07:29:00+00:00,297.9797,19.03,11.46,47.84626,-54.09684
2022-08-21 07:39:00+00:00,296.0447,19.05,11.46,47.84626,-54.09684
2022-08-21 07:49:00+00:00,293.2964,19.03,11.46,47.84626,-54.09684
2022-08-21 07:59:00+00:00,290.6547,19.05,11.46,47.84626,-54.09684
2022-08-21 08:09:00+00:00,289.9847,19.07,11.46,47.84626,-54.09684
2022-08-21 08:19:01+00:00,286.7831,19.07,11.46,47.84626,-54.09684
2022-08-21 08:29:01+00:00,282.3898,19.03,11.46,47.84626,-54.09684
2022-08-21 08:39:01+00:00,279.2513,19.09,11.46,47.84626,-54.09684
2022-08-21 08:49:01+00:00,279.6014,19.09,11.46,47.84626,-54.09684
2022-08-21 08:59:01+00:00,276.4263,19.09,11.46,47.84626,-54.09684
2022-08-21 09:09:01+00:00,271.2697,19.1,11.46,47.84626,-54.09684
2022-08-21 09:19:01+00:00,264.3331,19.1,11.46,47.84626,-54.09684
2022-08-21 09:29:01+00:00,261.5431,19.1,11.46,47.84626,-54.09684
2022-08-21 09:39:01+00:00,258.5114,19.1,11.46,47.84626,-54.09684
2022-08-21 09:49:01+00:00,251.3997,19.1,11.46,47.84626,-54.09684
2022-08-21 09:59:01+00:00,245.913,19.1,11.46,47.84626,-54.09684
2022-08-21 10:09:01+00:00,243.8764,19.08,11.46,47.84626,-54.09684
2022-08-21 10:19:01+00:00,239.7131,19.08,11.46,47.84626,-54.09684
2022-08-21 10:29:01+00:00,234.7048,19.08,11.46,47.84626,-54.09684
2022-08-21 10:39:01+00:00,232.8781,19.06,11.46,47.84626,-54.09684
2022-08-21 10:49:01+00:00,230.5498,19.02,11.46,47.84626,-54.09684
2022-08-21 10:59:01+00:00,227.2798,19.03,11.46,47.84626,-54.09684
2022-08-21 11:09:01+00:00,224.4231,19.03,11.46,47.84626,-54.09684
2022-08-21 11:19:01+00:00,223.4498,18.98,11.46,47.84626,-54.09684
2022-08-21 11:29:01+00:00,224.278,18.81,11.46,47.84626,-54.09684
2022-08-21 11:39:01+00:00,223.868,18.9,11.46,47.84626,-54.09684
2022-08-21 11:49:01+00:00,222.4131,18.9,11.46,47.84626,-54.09684
2022-08-21 11:59:01+00:00,223.7831,18.94,11.46,47.84626,-54.09684
2022-08-21 12:09:01+00:00,226.1881,18.9,11.46,47.84626,-54.09684
2022-08-21 12:19:01+00:00,226.6131,18.97,11.46,47.84626,-54.09684
2022-08-21 12:29:01+00:00,225.8765,19.0,11.46,47.84626,-54.09684
2022-08-21 12:39:01+00:00,227.0331,18.99,11.46,47.84626,-54.09684
2022-08-21 12:49:01+00:00,228.183,18.99,11.46,47.84626,-54.09684
2022-08-21 12:59:01+00:00,227.2897,19.0,11.46,47.84626,-54.09684
2022-08-21 13:09:01+00:00,226.2514,19.0,11.46,47.84626,-54.09684
2022-08-21 13:19:01+00:00,226.2113,18.95,11.46,47.84626,-54.09684
2022-08-21 13:29:01+00:00,227.3114,18.96,11.46,47.84626,-54.09684
2022-08-21 13:39:01+00:00,227.8498,18.98,11.46,47.84626,-54.09684
2022-08-21 13:49:01+00:00,228.2131,18.93,11.46,47.84626,-54.09684
2022-08-21 13:59:01+00:00,228.7214,18.9,11.46,47.84626,-54.09684
2022-08-21 14:09:01+00:00,230.6647,18.9,11.46,47.84626,-54.09684
2022-08-21 14:19:01+00:00,231.7881,18.9,11.46,47.84626,-54.09684
2022-08-21 14:29:01+00:00,233.6731,18.89,11.46,47.84626,-54.09684
2022-08-21 14:39:01+00:00,237.0364,18.8,11.46,47.84626,-54.09684
2022-08-21 14:49:01+00:00,238.6897,18.82,11.46,47.84626,-54.09684
2022-08-21 14:59:01+00:00,239.1881,18.81,11.46,47.84626,-54.09684
2022-08-21 15:09:01+00:00,241.8898,18.8,11.46,47.84626,-54.09684
2022-08-21 15:19:01+00:00,244.0114,18.79,11.53,47.84626,-54.09684
2022-08-21 15:29:01+00:00,245.8965,18.78,11.53,47.84626,-54.09684
2022-08-21 15:39:01+00:00,247.3231,18.78,11.53,47.84626,-54.09684
2022-08-21 15:49:01+00:00,249.7214,18.71,11.53,47.84626,-54.09684
2022-08-21 15:59:01+00:00,253.5197,18.7,11.53,47.84626,-54.09684
2022-08-21 16:09:01+00:00,258.1864,18.7,11.53,47.84626,-54.09684
2022-08-21 16:19:01+00:00,260.058,18.7,11.53,47.84626,-54.09684
2022-08-21 16:29:01+00:00,261.6114,18.7,11.53,47.84626,-54.09684
2022-08-21 16:39:01+00:00,266.1531,18.7,11.53,47.84626,-54.09684
2022-08-21 16:49:01+00:00,271.5414,18.68,11.53,47.84626,-54.09684
2022-08-21 16:59:01+00:00,273.4498,18.68,11.53,47.84626,-54.09684
2022-08-21 17:09:01+00:00,274.9797,18.63,11.53,47.84626,-54.09684
2022-08-21 17:19:01+00:00,279.7247,18.6,11.53,47.84626,-54.09684
2022-08-21 17:29:01+00:00,285.433,18.6,11.53,47.84626,-54.09684
2022-08-21 17:39:01+00:00,288.3614,18.57,11.53,47.84626,-54.09684
2022-08-21 17:49:01+00:00,291.3098,18.58,11.53,47.84626,-54.09684
2022-08-21 17:59:01+00:00,294.6231,18.6,11.53,47.84626,-54.09684
2022-08-21 18:09:01+00:00,298.6414,18.6,11.53,47.84626,-54.09684
2022-08-21 18:19:01+00:00,302.9197,18.6,11.53,47.84626,-54.09684
2022-08-21 18:29:01+00:00,304.0364,18.6,11.53,47.84626,-54.09684
2022-08-21 18:39:01+00:00,305.7197,18.6,11.53,47.84626,-54.09684
2022-08-21 18:49:01+00:00,307.973,18.5,11.53,47.84626,-54.09684
2022-08-21 18:59:01+00:00,309.8913,18.4,11.53,47.84626,-54.09684
2022-08-21 19:09:01+00:00,308.6097,18.4,11.53,47.84626,-54.09684
2022-08-21 19:19:00+00:00,307.2147,18.49,11.53,47.84626,-54.09684
2022-08-21 19:29:00+00:00,306.9964,18.5,11.53,47.84626,-54.09684
2022-08-21 19:39:00+00:00,306.7996,18.5,11.53,47.84626,-54.09684
2022-08-21 19:49:00+00:00,306.5763,18.53,11.53,47.84626,-54.09684
2022-08-21 19:59:00+00:00,308.2029,18.59,11.53,47.84626,-54.09684
2022-08-21 20:09:00+00:00,308.6813,18.6,11.53,47.84626,-54.09684
2022-08-21 20:19:01+00:00,307.863,18.6,11.53,47.84626,-54.09684
2022-08-21 20:29:01+00:00,306.2813,18.64,11.53,47.84626,-54.09684
2022-08-21 20:39:01+00:00,304.993,18.66,11.53,47.84626,-54.09684
2022-08-21 20:49:01+00:00,301.8897,18.64,11.53,47.84626,-54.09684
2022-08-21 20:59:01+00:00,299.4664,18.6,11.53,47.84626,-54.09684
2022-08-21 21:09:01+00:00,299.3864,18.5,11.53,47.84626,-54.09684
2022-08-21 21:19:00+00:00,294.9797,18.48,11.53,47.84626,-54.09684
2022-08-21 21:29:00+00:00,288.993,18.46,11.53,47.84626,-54.09684
2022-08-21 21:39:00+00:00,284.8547,18.5,11.53,47.84626,-54.09684
2022-08-21 21:49:00+00:00,283.2797,18.5,11.53,47.84626,-54.09684
2022-08-21 21:59:00+00:00,280.7497,18.5,11.53,47.84626,-54.09684
2022-08-21 22:09:00+00:00,277.6297,18.5,11.53,47.84626,-54.09684
2022-08-21 22:19:01+00:00,275.1281,18.5,11.46,47.84626,-54.09684
2022-08-21 22:29:01+00:00,270.6947,18.57,11.46,47.84626,-54.09684
2022-08-21 22:39:01+00:00,265.8781,18.59,11.46,47.84626,-54.09684
2022-08-21 22:49:01+00:00,262.0614,18.6,11.46,47.84626,-54.09684
2022-08-21 22:59:01+00:00,257.1714,18.6,11.46,47.84626,-54.09684
2022-08-21 23:09:01+00:00,251.5847,18.6,11.46,47.84626,-54.09684
2022-08-21 23:19:00+00:00,248.6614,18.6,11.46,47.84626,-54.09684
2022-08-21 23:29:00+00:00,246.1197,18.6,11.46,47.84626,-54.09684
2022-08-21 23:39:00+00:00,239.4097,18.6,11.46,47.84626,-54.09684
2022-08-21 23:49:00+00:00,237.1097,18.6,11.46,47.84626,-54.09684
2022-08-21 23:59:00+00:00,237.7914,18.6,11.46,47.84626,-54.09684
